CW4438 Weather Reports


Display with metric or nautical units.
time (UTC)temp
F
wind
direction
speed
MPH
gust
MPH
rain 1hr
in
rain 24hr
in
rain mn
in
humidity
%
barometer
mb
20260831194903 103 308 2.0 9.0 0.00 0.00 0.00 29 1016.3
20260831194403 103 205 3.0 10.0 0.00 0.00 0.00 30 1016.5
20260831193905 103 188 3.0 10.0 0.00 0.00 0.00 30 1016.5
20260831192904 102 186 2.0 6.0 0.00 0.00 0.00 30 1016.6
20260831192404 102 209 1.0 4.0 0.00 0.00 0.00 29 1016.7
20260831191903 102 105 2.0 9.0 0.00 0.00 0.00 29 1016.8
20260831191402 102 142 2.0 9.0 0.00 0.00 0.00 28 1016.9
20260831190903 102 199 3.0 6.0 0.00 0.00 0.00 28 1016.9
20260831190403 103 217 3.0 6.0 0.00 0.00 0.00 28 1017.0
20260831185903 102 249 3.0 6.0 0.00 0.00 0.00 31 1017.0
20260831184402 102 0 2.0 5.0 0.00 0.00 0.00 30 1017.2
20260831183903 101 318 2.0 5.0 0.00 0.00 0.00 32 1017.3
20260831183402 101 271 2.0 6.0 0.00 0.00 0.00 32 1017.3
20260831182903 101 320 2.0 6.0 0.00 0.00 0.00 31 1017.4
20260831181904 101 239 3.0 7.0 0.00 0.00 0.00 31 1017.6
20260831181403 101 280 3.0 8.0 0.00 0.00 0.00 32 1017.6
20260831180905 102 242 3.0 10.0 0.00 0.00 0.00 30 1017.7
20260831180404 102 235 2.0 10.0 0.00 0.00 0.00 31 1017.8
20260831175905 101 202 2.0 5.0 0.00 0.00 0.00 33 1017.8
20260831175402 101 234 2.0 5.0 0.00 0.00 0.00 33 1017.8
20260831174903 101 13 3.0 8.0 0.00 0.00 0.00 33 1017.9
20260831173903 100 297 2.0 9.0 0.00 0.00 0.00 35 1018.0
20260831173402 99 142 3.0 9.0 0.00 0.00 0.00 34 1018.1
20260831172903 99 205 3.0 6.0 0.00 0.00 0.00 36 1018.1
20260831172402 99 174 3.0 8.0 0.00 0.00 0.00 37 1018.2
20260831171903 98 215 2.0 8.0 0.00 0.00 0.00 36 1018.3
20260831171402 98 224 2.0 6.0 0.00 0.00 0.00 38 1018.3
20260831170903 98 304 3.0 6.0 0.00 0.00 0.00 37 1018.4
20260831170403 98 214 3.0 7.0 0.00 0.00 0.00 38 1018.4
20260831165857 98 185 3.0 7.0 0.00 0.00 0.00 37 1018.6
20260831165358 98 340 2.0 7.0 0.00 0.00 0.00 39 1018.6
20260831164857 97 234 2.0 6.0 0.00 0.00 0.00 40 1018.6
20260831164358 97 24 3.0 6.0 0.00 0.00 0.00 41 1018.6
20260831163858 97 83 2.0 0.0 0.00 0.00 0.00 40 1018.6
20260831162001 0 0.0 0.0 0.00 0.00 0.00
20260831161432 0 0.0 0.0 0.00 0.00 0.00
20260831160929 0 0.0 0.0 0.00 0.00 0.00
20260831160504 0 0.0 0.0 0.00 0.00 0.00
20260831154902 0 0.0 0.0 0.00 0.00 0.00
20260831154404 0 0.0 0.0 0.00 0.00 0.00
20260831153829 0 0.0 0.0 0.00 0.00 0.00
20260831153305 0 0.0 0.0 0.00 0.00 0.00
20260831152801 0 0.0 0.0 0.00 0.00 0.00
20260831152232 0 0.0 0.0 0.00 0.00 0.00
20260831151728 0 0.0 0.0 0.00 0.00 0.00
20260831151204 0 0.0 0.0 0.00 0.00 0.00
20260831150700 0 0.0 0.0 0.00 0.00 0.00
20260831150133 0 0.0 0.0 0.00 0.00 0.00
20260831145629 0 0.0 0.0 0.00 0.00 0.00
20260831145104 0 0.0 0.0 0.00 0.00 0.00
20260831144601 0 0.0 0.0 0.00 0.00 0.00
20260831144033 0 0.0 0.0 0.00 0.00 0.00
20260831143528 0 0.0 0.0 0.00 0.00 0.00
20260831143002 0 0.0 0.0 0.00 0.00 0.00
20260831142501 0 0.0 0.0 0.00 0.00 0.00
20260831141930 0 0.0 0.0 0.00 0.00 0.00
20260831141429 0 0.0 0.0 0.00 0.00 0.00
20260831140904 0 0.0 0.0 0.00 0.00 0.00
20260831140402 0 0.0 0.0 0.00 0.00 0.00
20260831134929 0 0.0 0.0 0.00 0.00 0.00
20260831134404 0 0.0 0.0 0.00 0.00 0.00
20260831133901 0 0.0 0.0 0.00 0.00 0.00
20260831133330 0 0.0 0.0 0.00 0.00 0.00
20260831132829 0 0.0 0.0 0.00 0.00 0.00
20260831132306 0 0.0 0.0 0.00 0.00 0.00
20260831131801 0 0.0 0.0 0.00 0.00 0.00
20260831131230 0 0.0 0.0 0.00 0.00 0.00
20260831130729 0 0.0 0.0 0.00 0.00 0.00
20260831130203 0 0.0 0.0 0.00 0.00 0.00
20260831125701 0 0.0 0.0 0.00 0.00 0.00
20260831125132 0 0.0 0.0 0.00 0.00 0.00
20260831124629 0 0.0 0.0 0.00 0.00 0.00
20260831124202 71 0.0 0.0 0.00 0.00 0.00 79 1017.8
20260831120511 71 88 0.0 1.0 0.00 0.00 0.00 77 1017.4
20260831120009 71 88 0.0 1.0 0.00 0.00 0.00 77 1017.3
20260831115508 71 88 0.0 1.0 0.00 0.00 0.00 77 1017.2
20260831115006 71 88 0.0 0.0 0.00 0.00 0.00 77 1017.2
20260831114503 71 88 0.0 0.0 0.00 0.00 0.00 77 1017.2
20260831114004 71 88 0.0 0.0 0.00 0.00 0.00 77 1017.0
20260831112503 71 88 0.0 1.0 0.00 0.00 0.00 75 1016.9
20260831112003 72 88 0.0 1.0 0.00 0.00 0.00 75 1016.8
20260831111504 72 88 0.0 1.0 0.00 0.00 0.00 75 1016.8
20260831111003 72 88 0.0 1.0 0.00 0.00 0.00 75 1016.8
20260831110503 72 88 0.0 1.0 0.00 0.00 0.00 75 1016.7
20260831110003 72 88 0.0 1.0 0.00 0.00 0.00 74 1016.7
20260831105502 72 88 0.0 0.0 0.00 0.00 0.00 74 1016.7
20260831104502 72 88 0.0 2.0 0.00 0.00 0.00 74 1016.7
20260831104002 72 96 0.0 1.0 0.00 0.00 0.00 74 1016.6
20260831103502 72 96 0.0 1.0 0.00 0.00 0.00 73 1016.6
20260831102502 72 96 0.0 0.0 0.00 0.00 0.00 73 1016.6
20260831102003 72 96 0.0 0.0 0.00 0.00 0.00 72 1016.6
20260831101503 72 96 0.0 0.0 0.00 0.00 0.00 72 1016.6
20260831101002 72 96 0.0 0.0 0.00 0.00 0.00 72 1016.6
20260831100503 72 96 0.0 0.0 0.00 0.00 0.00 71 1016.6
20260831100002 73 96 0.0 0.0 0.00 0.00 0.00 71 1016.6
20260831095504 73 96 0.0 0.0 0.00 0.00 0.00 71 1016.6
20260831095003 73 96 0.0 0.0 0.00 0.00 0.00 70 1016.6
20260831094504 73 96 0.0 0.0 0.00 0.00 0.00 70 1016.6
20260831094005 73 96 0.0 0.0 0.00 0.00 0.00 70 1016.6
20260831093504 73 96 0.0 1.0 0.00 0.00 0.00 70 1016.5
20260831093003 73 96 0.0 1.0 0.00 0.00 0.00 69 1016.3
20260831092508 73 96 0.0 1.0 0.00 0.00 0.00 69 1016.2
20260831091504 74 96 0.0 1.0 0.00 0.00 0.00 68 1016.3
20260831091005 74 96 0.0 0.0 0.00 0.00 0.00 67 1016.5
20260831090504 74 96 0.0 1.0 0.00 0.00 0.00 67 1016.3
20260831090004 74 96 0.0 2.0 0.00 0.00 0.00 67 1016.2
20260831085504 75 66 0.0 2.0 0.00 0.00 0.00 66 1016.2
20260831085004 75 72 0.0 1.0 0.00 0.00 0.00 65 1016.3
20260831084503 75 75 0.0 1.0 0.00 0.00 0.00 65 1016.2
20260831084004 76 74 0.0 1.0 0.00 0.00 0.00 64 1016.2
20260831083504 76 74 0.0 1.0 0.00 0.00 0.00 64 1016.1
20260831083004 76 76 0.0 1.0 0.00 0.00 0.00 62 1016.0
20260831082504 76 73 0.0 1.0 0.00 0.00 0.00 63 1016.1
20260831082003 76 94 0.0 2.0 0.00 0.00 0.00 62 1016.0
20260831081504 76 96 0.0 2.0 0.00 0.00 0.00 62 1015.9
20260831081004 76 66 0.0 1.0 0.00 0.00 0.00 62 1015.9
20260831080002 77 65 1.0 3.0 0.00 0.00 0.00 61 1015.9
20260831075502 77 67 0.0 2.0 0.00 0.00 0.00 61 1015.8
20260831074002 78 87 0.0 2.0 0.00 0.00 0.00 59 1015.9
20260831073503 78 94 0.0 1.0 0.00 0.00 0.00 59 1015.9
20260831072502 78 96 0.0 2.0 0.00 0.00 0.00 57 1016.0
20260831072003 79 95 0.0 2.0 0.00 0.00 0.00 57 1016.0
20260831071002 79 72 0.0 2.0 0.00 0.00 0.00 57 1016.0
20260831070503 79 69 0.0 3.0 0.00 0.00 0.00 56 1016.0
20260831070003 79 150 0.0 3.0 0.00 0.00 0.00 56 1016.0
20260831064503 80 111 0.0 3.0 0.00 0.00 0.00 55 1016.2
20260831064010 80 93 1.0 3.0 0.00 0.00 0.00 55 1016.1
20260831063511 80 151 1.0 5.0 0.00 0.00 0.00 55 1016.2
20260831063004 80 67 1.0 5.0 0.00 0.00 0.00 55 1016.1
20260831062008 80 97 1.0 4.0 0.00 0.00 0.00 55 1016.3
20260831061506 80 125 1.0 3.0 0.00 0.00 0.00 55 1016.3
20260831060503 80 123 1.0 8.0 0.00 0.00 0.00 54 1016.3
20260831060007 80 123 1.0 8.0 0.00 0.00 0.00 54 1016.3
20260831055506 80 120 1.0 5.0 0.00 0.00 0.00 54 1016.2
20260831055008 81 109 1.0 5.0 0.00 0.00 0.00 54 1016.2
20260831054507 81 90 1.0 5.0 0.00 0.00 0.00 54 1016.2
20260831054005 81 107 1.0 4.0 0.00 0.00 0.00 54 1016.2
20260831053507 81 133 1.0 4.0 0.00 0.00 0.00 54 1016.2
20260831053007 81 140 1.0 3.0 0.00 0.00 0.00 53 1016.1
20260831052503 81 105 1.0 7.0 0.00 0.00 0.00 53 1016.1
20260831052005 81 157 1.0 7.0 0.00 0.00 0.00 53 1016.1
20260831051503 81 76 1.0 5.0 0.00 0.00 0.00 53 1016.0
20260831051008 81 134 1.0 5.0 0.00 0.00 0.00 53 1016.0
20260831050505 81 57 1.0 5.0 0.00 0.00 0.00 53 1016.0
20260831050003 81 85 1.0 5.0 0.00 0.00 0.00 53 1015.9
20260831044506 82 104 1.0 3.0 0.00 0.00 0.00 54 1015.8
20260831044006 82 92 1.0 6.0 0.00 0.00 0.00 54 1015.8
20260831043512 82 131 2.0 6.0 0.00 0.00 0.00 54 1015.8
20260831043006 82 85 2.0 7.0 0.00 0.00 0.00 54 1015.8
20260831042504 82 95 1.0 7.0 0.00 0.00 0.00 54 1015.7
20260831042005 82 132 1.0 5.0 0.00 0.00 0.00 53 1015.8
20260831041504 83 146 1.0 5.0 0.00 0.00 0.00 53 1015.8
20260831041005 83 77 1.0 5.0 0.00 0.00 0.00 53 1015.7
20260831040502 83 132 1.0 5.0 0.00 0.00 0.00 53 1015.7
20260831040002 83 139 1.0 3.0 0.00 0.00 0.00 52 1015.6
20260831035004 83 94 1.0 5.0 0.00 0.00 0.00 52 1015.6
20260831034504 84 194 1.0 6.0 0.00 0.00 0.00 52 1015.5
20260831033510 84 118 2.0 6.0 0.00 0.00 0.00 51 1015.4
20260831033007 84 19 2.0 6.0 0.00 0.00 0.00 51 1015.4
20260831032508 85 19 1.0 6.0 0.00 0.00 0.00 50 1015.3
20260831032007 85 227 1.0 5.0 0.00 0.00 0.00 50 1015.4
20260831031507 85 163 2.0 7.0 0.00 0.00 0.00 50 1015.3
20260831031006 85 220 2.0 7.0 0.00 0.00 0.00 50 1015.4
20260831030505 85 340 2.0 6.0 0.00 0.00 0.00 49 1015.3
20260831030005 85 85 2.0 7.0 0.00 0.00 0.00 49 1015.3
20260831025506 86 117 2.0 8.0 0.00 0.00 0.00 49 1015.2
20260831025009 86 199 2.0 8.0 0.00 0.00 0.00 49 1015.3
20260831024508 86 197 2.0 4.0 0.00 0.00 0.00 48 1015.2
20260831024006 86 238 2.0 7.0 0.00 0.00 0.00 48 1015.1
20260831023511 86 197 2.0 7.0 0.00 0.00 0.00 47 1015.1
20260831023009 87 175 2.0 6.0 0.00 0.00 0.00 47 1015.1
20260831022506 87 205 3.0 7.0 0.00 0.00 0.00 47 1015.0
20260831022005 87 167 2.0 9.0 0.00 0.00 0.00 46 1015.0
20260831021507 87 261 2.0 9.0 0.00 0.00 0.00 46 1014.9
20260831021002 87 131 2.0 6.0 0.00 0.00 0.00 45 1014.9
20260831020504 87 188 2.0 8.0 0.00 0.00 0.00 45 1014.8
20260831015503 87 48 2.0 6.0 0.00 0.00 0.00 44 1014.6
20260831014504 88 80 0.0 5.0 0.00 0.00 0.00 43 1014.5
20260831014005 88 165 0.0 2.0 0.00 0.00 0.00 42 1014.5
20260831013508 89 114 0.0 2.0 0.00 0.00 0.00 42 1014.4
20260831013006 89 103 0.0 2.0 0.00 0.00 0.00 41 1014.3
20260831012506 89 150 0.0 2.0 0.00 0.00 0.00 40 1014.3
20260831012008 89 138 1.0 2.0 0.00 0.00 0.00 40 1014.3
20260831011507 90 138 1.0 3.0 0.00 0.00 0.00 39 1014.2
20260831011007 90 108 1.0 3.0 0.00 0.00 0.00 39 1014.2
20260831010508 91 112 1.0 3.0 0.00 0.00 0.00 38 1014.2
20260831005503 91 123 0.0 5.0 0.00 0.00 0.00 37 1014.2
20260831005006 92 176 0.0 1.0 0.00 0.00 0.00 36 1014.2
20260831004503 93 177 0.0 2.0 0.00 0.00 0.00 35 1014.2
20260831003505 93 213 0.0 2.0 0.00 0.00 0.00 34 1014.3
20260831003008 93 213 1.0 3.0 0.00 0.00 0.00 34 1014.3
20260831002509 94 217 2.0 5.0 0.00 0.00 0.00 33 1014.2
20260831001507 94 192 2.0 5.0 0.00 0.00 0.00 33 1014.2
20260831001004 94 115 2.0 5.0 0.00 0.00 0.00 32 1014.2
20260831000504 94 148 2.0 5.0 0.00 0.00 0.00 33 1014.2
20260830235504 95 211 1.0 6.0 0.00 0.00 0.00 33 1014.3
20260830235004 95 193 2.0 6.0 0.00 0.00 0.00 32 1014.2
20260830234502 96 258 2.0 6.0 0.00 0.00 0.00 32 1014.3
20260830234000 96 239 2.0 5.0 0.00 0.00 0.00 32 1014.3
20260830232506 96 229 2.0 7.0 0.00 0.00 0.00 31 1014.3
20260830232003 97 232 2.0 6.0 0.00 0.00 0.00 31 1014.3
20260830231505 97 282 2.0 6.0 0.00 0.00 0.00 31 1014.2
20260830231002 97 213 2.0 6.0 0.00 0.00 0.00 31 1014.3
20260830230006 98 155 2.0 5.0 0.00 0.00 0.00 30 1014.3
20260830225514 98 246 2.0 4.0 0.00 0.00 0.00 30 1014.3
20260830223503 100 227 2.0 6.0 0.00 0.00 0.00 29 1014.2
20260830202001 102 132 3.0 7.0 0.00 0.00 0.00 28 1015.0
20260830201001 101 169 3.0 8.0 0.00 0.00 0.00 29 1015.1
20260830200501 101 231 3.0 12.0 0.00 0.00 0.00 29 1015.2
20260830195501 101 232 3.0 8.0 0.00 0.00 0.00 29 1015.3
20260830195001 101 252 3.0 8.0 0.00 0.00 0.00 30 1015.3